Location: Unspecified
(41.5516°N, 88.1098°W)
Time: 23:51:54
(UTC-05:00)

Cosmos 1674 - Visible Passes

Search period start: 30 October 2014 00:00
Search period end: 08 November 2014 23:00
Orbit: 514 x 540 km, 82.5° (Epoch: 29 October)

Date Brightness Start Highest point End Pass type
(mag) Time Alt. Az. Time Alt. Az. Time Alt. Az.
30 Oct 4.4 04:54:20 31° NE 04:54:20 31° NE 04:56:42 10° NNE visible
30 Oct 4.6 06:29:41 13° WNW 06:29:41 13° WNW 06:31:04 10° NW visible
31 Oct 5.4 04:44:20 15° NNE 04:44:20 15° NNE 04:45:11 10° NNE visible
31 Oct 5.0 06:19:40 11° NW 06:19:40 11° NW 06:19:50 10° NW visible
